Location: Ottawa
(45.4167°N, 75.7000°W)
Time: 20:08:07
(UTC-04:00)

ISS - Pass Details

Date: 10 October 2017
Orbit: 401 x 408 km, 51.6° (Epoch: 17 October)

Event Time Altitude Azimuth Distance (km) Brightness Sun altitude
Rises 19:41:17 0° 299° (WNW) 2,326 1.3 -14.0°
Reaches altitude 10° 19:43:23 10° 304° (WNW) 1,466 0.0 -14.4°
Maximum altitude 19:46:38 57° 24° (NNE) 483 -3.6 -15.0°
Enters shadow 19:47:44 35° 86° (E) 674 -3.3 -15.2°
